Погода в Кымпулунг-Молдовенеске

Румыния     47°31′31″N   25°34′34″E
В апреле 2022 года жителям России запретили посещать сайт meteo.paraplan.net по решению Генеральной прокуратуры. Аудитория сайта уменьшилась в 10 раз. Владельцы сайта не видят смысла в поддержке погодного сервера в таких условиях. Сайт будет закрыт в октябре.
темп.,
°C
ветер,
м/с
пор.,
м/с
влажн.,
%
обл.,
%
осадки,
мм/ч
давл.,
гПа
погр.,
м
5 октября, ср
ср500:00+4зюз228984 0.0 102660
03:00+1юз22966 0.0 102826
06:00+1зюз229712 0.0 102926
09:00+4зюз2285100 0.0 1029149
12:00+10зюз225481 0.0 1028765
15:00+12зюз334690 0.0 1026960
18:00+9зюз2268100 0.0 102732
21:00+5юз2289100 0.0 103032
6 октября, чт
чт600:00+4зюз2294100 0.0 103043
03:00+4зюз2293100 0.0 103042
06:00+4зюз2287100 0.0 102939
09:00+7зюз2272100 0.0 102890
12:00+14зюз2247100 0.0 1027336
15:00+16зюз1144100 0.0 1026494
18:00+12зюз1165100 0.0 102711
21:00+8зюз1181100 0.0 103010
7 октября, пт
пт700:00+7зсз1184100 0.0 103210
03:00+7зсз1183100 0.0 103210
06:00+9сз1182100 0.0 103118
09:00+10ссв1182100 0.0 103191
12:00+14всв116891 0.1 1030916
15:00+14всв216597 0.1 1028940
18:00+11всв1185100 0.0 102733
21:00+8ююв119616 0.0 102810
8 октября, сб
сб800:00+7ююз11965 0.0 102711
03:00+6юз11965 0.0 102613
06:00+6юз21956 0.0 102513
09:00+9юз118661 0.0 102377
12:00+17юз015369 0.0 1020615
15:00+20ю014221 0.0 10181246
18:00+15ююв116950 0.0 101812
21:00+10зюз1189100 0.0 102010
9 октября, вс
вс900:00+9зюз2192100 0.0 102016
03:00+9з119095 0.0 102110
06:00+7сз228999 0.0 102220
09:00+10с2683100 0.0 1024993
12:00+11ссв237080 0.1 1025905
15:00+12с226189 0.1 10251187
18:00+10св11693 0.0 102624
21:00+5вюв01910 0.0 102910